[[{"header":{"parameterUnit":"m.s-1","parameterCategory":1,"la1":30.2991,"la2":30.254,"lo1":-89.0895,"lo2":-89.0444,"dy":0.0017,"dx":0.0017,"nx":28,"ny":28,"refTime":"2025-01-05T09:00:00:Z","depth":0,"parameterNumber":2,"parameterNumberName":"U-component_of_WINDS"},"data":[0,0,0,0,0,0,0,0,0,0,0,0,0,0,0,0,0,0,0,0,0,0,0,0,0,0,0,0,0,0,0,0,0,0,0,0,0,0,0,0,0,0,0,0,0,0,0,0,0,0,0,0,0,0,0,0,0,0,5.2677,5.2678,0,5.2803,5.2805,5.2806,5.2789,5.2787,5.2785,5.2783,5.2921,5.2926,5.2932,0,0,0,0,0,0,0,0,0,0,0,0,0,5.2433,5.2437,5.2677,5.2678,5.268,5.2803,5.2805,5.2807,5.2789,5.2787,5.2784,5.2782,5.2919,5.2926,5.2932,0,0,0,0,0,0,0,0,0,0,0,0,0,5.2547,5.2439,5.2677,5.2686,5.2688,5.2803,5.2805,5.2807,5.279,5.2787,5.2784,5.2781,5.2917,5.2925,5.2933,5.3049,0,0,5.2959,5.2963,0,0,0,0,0,0,0,0,5.2541,5.2556,5.2683,5.2686,5.2688,5.2777,5.2769,5.2888,5.2791,5.2752,5.2783,5.2779,5.2876,5.2888,5.2919,5.3055,5.3061,5.296,5.2965,5.2969,5.2971,0,0,0,0,0,0,0,5.2533,5.2551,5.2727,5.2685,5.2688,5.2688,5.2701,5.2792,5.283,5.2755,5.2754,5.2769,5.2877,5.2911,5.2922,5.3063,5.296,5.2967,5.2972,5.2976,5.3309,5.3313,0,0,0,0,0,0,5.2521,5.2544,5.2723,5.2731,5.2605,5.2695,5.2709,5.2752,5.2829,5.2838,5.2771,5.2767,5.2898,5.2912,5.2927,5.307,5.2969,5.2977,5.2981,5.3305,5.331,5.3314,0,0,0,0,0,0,5.2516,5.2537,5.2718,5.2637,5.266,5.2702,5.2751,5.2756,5.2789,5.2841,5.2849,5.2797,5.2896,5.2915,5.302,5.3075,5.298,5.2988,5.3301,5.3307,5.3312,5.3357,0,0,0,0,0,0,5.2509,5.2535,5.2576,5.2638,5.2665,5.2805,5.2754,5.2761,5.2803,5.2799,5.2868,5.2877,5.2895,5.3007,5.3028,5.3085,5.2995,5.3296,5.3303,5.331,5.335,5.3363,5.3374,0,0,0,0,0,5.25,5.2584,5.2578,5.26,5.2716,5.2808,5.2823,5.2839,5.2807,5.2851,5.2886,5.2875,5.3066,5.3018,5.3041,5.3101,5.3293,5.3301,5.331,5.3345,5.3361,5.3374,0,0,0,0,0,0,5.2528,5.2592,5.2586,5.2692,5.2745,5.2805,5.2859,5.2855,5.2919,5.2913,5.2934,5.295,5.3057,5.309,5.3035,5.3221,5.3176,5.3189,5.3194,5.321,5.3221,5.3211,5.3002,0,0,0,0,0,5.2546,5.2612,5.2666,5.2755,5.2781,5.2817,5.2857,5.2865,5.2922,5.2944,5.2986,5.3045,5.3119,5.3166,5.3236,5.3356,5.3374,5.341,5.3422,5.3432,5.3443,5.3515,5.3532,5.3342,5.3342,5.3342,0,0,5.2585,5.2629,5.2669,5.2762,5.2803,5.2875,5.2835,5.2911,5.2966,5.2957,5.3058,5.3092,5.3159,5.3273,5.3326,5.3304,5.35,5.3442,5.3449,5.3456,5.3525,5.3543,5.3559,5.3348,5.3347,5.3346,0,0,5.2692,5.273,5.281,5.2853,5.2917,5.2941,5.296,5.3023,5.3044,5.3146,5.3143,5.3211,5.3336,5.3385,5.3427,5.3561,5.3555,5.3584,5.3645,5.3714,5.373,5.3743,5.3794,5.3812,5.3595,5.3595,5.3595,0,5.2733,5.2837,5.2852,5.2931,5.2974,5.2969,5.3053,5.3095,5.318,5.3212,5.3186,5.3347,5.3392,5.3519,5.3553,5.3586,5.3613,5.3574,5.3725,5.3739,5.3752,5.3801,5.382,5.3598,5.3598,5.3598,5.3597,0,5.2886,5.2959,5.3017,5.3097,5.3147,5.3228,5.326,5.331,5.3317,5.3345,5.3453,5.3507,5.3591,5.3623,5.3629,5.3754,5.3739,5.372,5.3674,5.3773,5.382,5.3838,5.3603,5.3602,5.3601,5.36,0,0,5.3009,5.3101,5.3122,5.316,5.3233,5.3292,5.3377,5.3456,5.3501,5.3562,5.3636,5.3745,5.3729,5.3777,5.3791,5.3852,5.396,5.3826,5.3828,5.385,5.4106,5.412,5.414,5.3957,5.3961,5.3963,5.4101,0,5.3124,5.3268,5.3287,5.3417,5.3487,5.3487,5.3562,5.3618,5.3648,5.3717,5.3753,5.3831,5.3802,5.3832,5.3892,5.3933,5.4011,5.3924,5.403,5.4034,5.4012,5.4164,5.4178,5.4304,5.4119,5.4122,5.4124,0,5.3276,5.334,5.3476,5.3544,5.3575,5.364,5.3718,5.3782,5.3849,5.3868,5.3924,5.3932,5.4025,5.3977,5.411,5.405,5.4096,5.4124,5.4129,5.4139,5.4084,5.418,5.4345,5.4364,5.4152,5.415,5.4148,0,5.3354,5.3475,5.3573,5.3606,5.3688,5.3735,5.3772,5.3835,5.3884,5.3954,5.3987,5.4069,5.4114,5.418,5.4213,5.4174,5.4345,5.4298,5.4367,5.4366,5.4401,5.4398,5.4576,5.443,5.443,5.443,5.4429,0,5.348,5.3564,5.361,5.367,5.3766,5.3792,5.3888,5.3924,5.3982,5.4053,5.406,5.4128,5.4167,5.4243,5.427,5.4378,5.4398,5.442,5.4426,5.4419,5.4416,5.4448,5.4441,5.4435,5.4434,5.4433,5.4432,0,5.3582,5.3616,5.3723,5.3793,5.3813,5.3881,5.3943,5.4005,5.4038,5.4129,5.4152,5.4205,5.4295,5.4335,5.4447,5.4466,5.459,5.459,5.4566,5.4568,5.4635,5.4629,5.484,5.4871,5.4704,5.4706,5.4707,0,5.366,5.3724,5.3802,5.3849,5.3887,5.3963,5.4013,5.4044,5.4097,5.4181,5.4234,5.4324,5.4397,5.4543,5.4595,5.4683,5.4685,5.4754,5.4698,5.4691,5.4689,5.4685,5.4694,5.4763,5.4765,5.4766,5.4767,0,5.3795,5.381,5.388,5.3958,5.4018,5.4082,5.4145,5.4184,5.4226,5.4287,5.4378,5.4435,5.455,5.4642,5.4734,5.4778,5.4782,5.4785,5.4806,5.4799,5.4783,5.4795,5.4594,5.4779,5.4778,5.4777,5.4777,5.4776,5.3888,5.3947,5.4012,5.4092,5.4143,5.4203,5.4265,5.4307,5.4382,5.4476,5.4492,5.459,5.4664,5.4787,5.4836,5.4918,5.4901,5.4931,5.4939,5.4945,5.4951,5.4771,5.4935,5.4935,5.4934,5.4934,5.4934,0,5.4025,5.4067,5.4141,5.4228,5.4294,5.429,5.4361,5.4417,5.4503,5.4569,5.4641,5.475,5.4841,5.4902,5.4996,5.505,5.5055,5.5074,5.507,5.5082,5.4958,5.4931,5.5069,5.5069,5.5069,5.5069,5.5069,5.5069,5.4103,5.4204,5.4228,5.4357,5.4401,5.4494,5.4536,5.4594,5.4648,5.4767,5.4842,5.488,5.4947,5.5047,5.5133,5.5149,5.5184,5.5204,5.522,5.5104,5.5089,5.5076,5.5051,5.5211,5.5211,5.5337,5.5338,5.5339]},{"header":{"parameterUnit":"m.s-1","parameterCategory":1,"la1":30.2991,"la2":30.254,"lo1":-89.0895,"lo2":-89.0444,"dy":0.0017,"dx":0.0017,"nx":28,"ny":28,"refTime":"2025-01-05T09:00:00:Z","depth":0,"parameterNumber":3,"parameterNumberName":"V-component_of_WINDS"},"data":[0,0,0,0,0,0,0,0,0,0,0,0,0,0,0,0,0,0,0,0,0,0,0,0,0,0,0,0,0,0,0,0,0,0,0,0,0,0,0,0,0,0,0,0,0,0,0,0,0,0,0,0,0,0,0,0,0,0,-7.5738,-7.5742,0,-7.6058,-7.6062,-7.6065,-7.6055,-7.605,-7.6046,-7.6042,-7.6361,-7.6373,-7.6386,0,0,0,0,0,0,0,0,0,0,0,0,0,-7.5109,-7.5121,-7.5738,-7.5742,-7.5746,-7.6057,-7.6062,-7.6066,-7.6056,-7.605,-7.6045,-7.604,-7.6357,-7.6372,-7.6387,0,0,0,0,0,0,0,0,0,0,0,0,0,-7.5401,-7.5125,-7.5737,-7.5778,-7.5785,-7.6057,-7.6062,-7.6067,-7.6057,-7.605,-7.6043,-7.6037,-7.6352,-7.637,-7.6389,-7.6638,0,0,-7.6447,-7.6455,0,0,0,0,0,0,0,0,-7.5384,-7.5424,-7.5768,-7.5776,-7.5784,-7.601,-7.5957,-7.6258,-7.6058,-7.5953,-7.6042,-7.6034,-7.6249,-7.6276,-7.635,-7.6653,-7.6666,-7.6448,-7.646,-7.6468,-7.6473,0,0,0,0,0,0,0,-7.5364,-7.541,-7.5864,-7.5773,-7.5783,-7.5778,-7.5812,-7.6014,-7.6134,-7.5962,-7.5962,-7.6,-7.6252,-7.6332,-7.6357,-7.6671,-7.6448,-7.6464,-7.6476,-7.6484,-7.7191,-7.7199,0,0,0,0,0,0,-7.5336,-7.5393,-7.5854,-7.5874,-7.5564,-7.5795,-7.5833,-7.5944,-7.6132,-7.6154,-7.6006,-7.5999,-7.6303,-7.6335,-7.6369,-7.6672,-7.6468,-7.6485,-7.6496,-7.7184,-7.7193,-7.7201,0,0,0,0,0,0,-7.5323,-7.5377,-7.5841,-7.5634,-7.5692,-7.5813,-7.5937,-7.5954,-7.6034,-7.6165,-7.6185,-7.6066,-7.6299,-7.6342,-7.6571,-7.6683,-7.6494,-7.6511,-7.7175,-7.7187,-7.7197,-7.7281,0,0,0,0,0,0,-7.5305,-7.5373,-7.5471,-7.5636,-7.5704,-7.6042,-7.5944,-7.5965,-7.6068,-7.6061,-7.6227,-7.6248,-7.6297,-7.6543,-7.659,-7.6706,-7.6526,-7.7166,-7.718,-7.7194,-7.7269,-7.7294,-7.7315,0,0,0,0,0,-7.5282,-7.548,-7.5476,-7.5531,-7.5829,-7.6048,-7.6086,-7.6141,-7.6077,-7.6175,-7.6259,-7.6243,-7.6663,-7.6567,-7.6619,-7.6742,-7.7159,-7.7176,-7.7193,-7.7258,-7.7289,-7.7314,0,0,0,0,0,0,-7.5322,-7.5503,-7.55,-7.5757,-7.5888,-7.6046,-7.6172,-7.6172,-7.6321,-7.6309,-7.6367,-7.6405,-7.6634,-7.6711,-7.66,-7.6992,-7.6902,-7.693,-7.6934,-7.6964,-7.6987,-7.6964,-7.6542,0,0,0,0,0,-7.5361,-7.5527,-7.5674,-7.5887,-7.5953,-7.6051,-7.6148,-7.6179,-7.6316,-7.637,-7.6471,-7.6601,-7.6762,-7.6867,-7.7022,-7.7279,-7.7314,-7.7389,-7.7412,-7.743,-7.7454,-7.7594,-7.7629,-7.7256,-7.7256,-7.7256,0,0,-7.5443,-7.5562,-7.5663,-7.5898,-7.6003,-7.617,-7.6098,-7.6278,-7.6402,-7.6396,-7.662,-7.6698,-7.6847,-7.7091,-7.7203,-7.7161,-7.7565,-7.7452,-7.7466,-7.748,-7.7615,-7.765,-7.7682,-7.7268,-7.7266,-7.7264,0,0,-7.5679,-7.5786,-7.5975,-7.6082,-7.6242,-7.6306,-7.6351,-7.651,-7.6562,-7.6788,-7.6787,-7.6933,-7.721,-7.7316,-7.7406,-7.768,-7.767,-7.7728,-7.7849,-7.7985,-7.8014,-7.804,-7.8137,-7.8172,-7.7751,-7.7751,-7.7751,0,-7.576,-7.6016,-7.6071,-7.6254,-7.6357,-7.6361,-7.6552,-7.6651,-7.6853,-7.6922,-7.6873,-7.7221,-7.7321,-7.7589,-7.7656,-7.7729,-7.778,-7.771,-7.8006,-7.8033,-7.8058,-7.8151,-7.8188,-7.7757,-7.7757,-7.7756,-7.7755,0,-7.6107,-7.6284,-7.6416,-7.6614,-7.6731,-7.6917,-7.6998,-7.711,-7.7129,-7.7197,-7.7425,-7.7546,-7.7726,-7.7791,-7.7811,-7.8062,-7.8031,-7.7994,-7.7905,-7.8099,-7.8187,-7.8224,-7.7766,-7.7764,-7.7762,-7.776,0,0,-7.6378,-7.6604,-7.6652,-7.6742,-7.6918,-7.7054,-7.7238,-7.7416,-7.751,-7.7648,-7.7802,-7.8036,-7.8002,-7.8104,-7.8136,-7.8255,-7.8463,-7.8202,-7.8206,-7.8246,-7.8745,-7.8773,-7.8814,-7.8457,-7.8464,-7.847,-7.8732,0,-7.6633,-7.6963,-7.7018,-7.7307,-7.747,-7.7475,-7.7635,-7.7758,-7.7826,-7.7971,-7.8044,-7.8209,-7.8152,-7.8214,-7.8331,-7.8413,-7.8564,-7.8394,-7.8599,-7.8606,-7.8563,-7.886,-7.8891,-7.9134,-7.8767,-7.8773,-7.8778,0,-7.6974,-7.7124,-7.743,-7.7583,-7.7653,-7.7797,-7.7964,-7.8104,-7.8242,-7.8283,-7.8397,-7.8414,-7.8601,-7.8503,-7.8761,-7.8645,-7.8731,-7.8783,-7.8793,-7.8815,-7.8704,-7.889,-7.9213,-7.9249,-7.8833,-7.8828,-7.8824,0,-7.7142,-7.742,-7.7638,-7.7714,-7.7899,-7.7999,-7.808,-7.8212,-7.8316,-7.846,-7.8528,-7.8691,-7.878,-7.8904,-7.8964,-7.8887,-7.9217,-7.9124,-7.9254,-7.9253,-7.9325,-7.932,-7.9666,-7.9379,-7.9378,-7.9377,-7.9377,0,-7.7421,-7.7608,-7.7716,-7.7851,-7.8059,-7.8119,-7.8322,-7.8399,-7.8517,-7.8664,-7.8677,-7.8814,-7.8884,-7.9031,-7.9077,-7.9283,-7.9323,-7.9359,-7.9369,-7.9359,-7.9355,-7.9417,-7.9402,-7.9387,-7.9385,-7.9383,-7.9381,0,-7.7645,-7.7726,-7.7964,-7.8119,-7.8162,-7.8309,-7.844,-7.8569,-7.8635,-7.8821,-7.8868,-7.8971,-7.9144,-7.9215,-7.9426,-7.9458,-7.9694,-7.9691,-7.9649,-7.9652,-7.9778,-7.9765,-8.0177,-8.0234,-7.9909,-7.9912,-7.9914,0,-7.7819,-7.7963,-7.8134,-7.8235,-7.832,-7.8482,-7.8588,-7.865,-7.876,-7.8928,-7.9036,-7.921,-7.9352,-7.9627,-7.9719,-7.988,-7.9881,-8.0014,-7.9905,-7.9889,-7.9883,-7.9874,-7.9888,-8.0034,-8.0037,-8.004,-8.0042,0,-7.8119,-7.8151,-7.8305,-7.8473,-7.86,-7.8734,-7.8865,-7.8946,-7.9028,-7.9149,-7.9329,-7.9439,-7.9656,-7.9827,-7.9993,-8.0072,-8.0071,-8.0076,-8.0114,-8.0106,-8.0076,-8.0094,-7.9704,-8.0066,-8.0064,-8.0062,-8.0061,-8.006,-7.8324,-7.8452,-7.8592,-7.8763,-7.8868,-7.899,-7.9119,-7.9201,-7.9353,-7.9537,-7.9562,-7.9753,-7.9885,-8.0108,-8.0194,-8.0341,-8.0307,-8.0363,-8.0377,-8.039,-8.0399,-8.0051,-8.0371,-8.0371,-8.037,-8.037,-8.0369,0,-7.8624,-7.8715,-7.8871,-7.9055,-7.9189,-7.9178,-7.9321,-7.9433,-7.9602,-7.9727,-7.9867,-8.0071,-8.0237,-8.0341,-8.0507,-8.0605,-8.0608,-8.0646,-8.064,-8.0658,-8.042,-8.0371,-8.0641,-8.064,-8.064,-8.064,-8.064,-8.064,-7.8797,-7.9013,-7.9062,-7.9329,-7.9417,-7.9607,-7.969,-7.9801,-7.9901,-8.013,-8.0269,-8.0336,-8.0452,-8.0626,-8.0776,-8.0802,-8.0862,-8.0903,-8.0926,-8.0703,-8.0675,-8.0648,-8.0602,-8.0916,-8.0916,-8.1152,-8.1154,-8.1156]}]]